Weather History for Middletown, PA

Change the Weather History Date:

Tuesday, August 13, 2013

  Actual Average Record
Temperature  
Mean Temperature 74 °F 74 °F  
Max Temperature 82 °F 84 °F 100 °F (1944)
Min Temperature 66 °F 65 °F 50 °F (1930)
Degree Days  
Heating Degree Days 0 0  
Month to date heating degree days 0 0  
Since 1 June heating degree days 2 18  
Since 1 July heating degree days 0 0  
Cooling Degree Days 9 10  
Month to date cooling degree days 107 130  
Year to date cooling degree days 822 746  
Since 1 June cooling degree days 739 681  
Growing Degree Days 24 (Base 50)    
Moisture  
Dew Point 65 °F    
Average Humidity 77    
Maximum Humidity 100    
Minimum Humidity 53    
Precipitation  
Precipitation 0.83 in 0.10 in 1.94 in (1955)
Month to date precipitation 2.05 1.40  
Year to date precipitation 23.21 25.14  
Sea Level Pressure  
Sea Level Pressure 29.80 in    
Wind  
Wind Speed 7 mph (South)    
Max Wind Speed 18 mph    
Max Gust Speed 23 mph    
Visibility 7 miles    
Events Rain , Thunderstorm    
T = Trace of Precipitation, MM = Missing Value Source: NWS Daily Summary

Daily Weather History Graph

Daily Weather History Graph

Search for Another Location

Airport:

Trip Planner

Search our weather history database for the weather conditions in past years. The results will help you decide how hot, cold, wet, or windy it might be!

Date:

Astronomy

Aug. 13, 2013 Rise Set
Actual Time 6:16 AM EDT 8:06 PM EDT
Civil Twilight 5:47 AM EDT 8:35 PM EDT
Nautical Twilight 5:11 AM EDT 9:11 PM EDT
Astronomical Twilight 4:33 AM EDT 9:49 PM EDT
Moon 1:09 PM EDT (8/13) 11:39 PM EDT (8/13)
Length of Visible Light 14h 48m
Length of Day
13h 49m
Waxing Crescent, 41% of the Moon is Illuminated
Aug 13
Waxing Crescent
Aug 14
First Quarter
Aug 20
Full
Aug 28
Last Quarter
Sep 5
New

Hourly Weather History & Observations

Time (EDT) Temp. Heat Index Dew Point Humidity Pressure Visibility Wind Dir Wind Speed Gust Speed Precip Events Conditions
12:56 AM 75.0 °F - 66.0 °F 73% 29.89 in 10.0 mi SSW 6.9 mph - N/A   Mostly Cloudy
1:56 AM 73.0 °F - 66.9 °F 81% 29.87 in 9.0 mi Calm Calm - N/A   Overcast
2:56 AM 72.0 °F - 66.0 °F 81% 29.83 in 8.0 mi ESE 6.9 mph - N/A   Overcast
3:21 AM 71.6 °F - 66.2 °F 83% 29.82 in 8.0 mi ENE 3.5 mph - N/A Thunderstorm Thunderstorm
3:56 AM 70.0 °F - 64.0 °F 81% 29.85 in 3.0 mi SW 11.5 mph 23.0 mph 0.07 in Rain , Thunderstorm Thunderstorms and Rain
4:14 AM 69.8 °F - 64.4 °F 83% 29.84 in 6.0 mi SW 8.1 mph - 0.02 in Rain Light Rain
4:36 AM 69.8 °F - 64.4 °F 83% 29.85 in 4.0 mi SW 4.6 mph - 0.07 in Rain , Thunderstorm Thunderstorms and Rain
4:56 AM 69.1 °F - 66.0 °F 90% 29.84 in 3.0 mi Calm Calm - 0.14 in Rain , Thunderstorm Thunderstorms and Rain
5:23 AM 68.0 °F - 66.2 °F 94% 29.82 in 5.0 mi NE 3.5 mph - 0.11 in Rain Rain
5:56 AM 68.0 °F - 64.9 °F 90% 29.80 in 5.0 mi SE 3.5 mph - 0.15 in Rain Light Rain
6:33 AM 68.0 °F - 66.2 °F 94% 29.82 in 4.0 mi South 5.8 mph - 0.07 in Rain Rain
6:44 AM 68.0 °F - 66.2 °F 94% 29.81 in 2.0 mi Calm Calm - 0.14 in Rain Heavy Rain
6:56 AM 66.9 °F - 64.0 °F 90% 29.81 in 2.5 mi SSE 8.1 mph - 0.22 in Rain Heavy Rain
6:58 AM 66.2 °F - 64.4 °F 94% 29.81 in 3.0 mi SSE 6.9 mph - 0.00 in Rain Heavy Rain
7:05 AM 66.2 °F - 64.4 °F 94% 29.81 in 2.5 mi SE 4.6 mph - 0.06 in Rain Heavy Rain
7:31 AM 66.2 °F - 64.4 °F 94% 29.81 in 4.0 mi ESE 3.5 mph - 0.16 in Rain Rain
7:35 AM 66.2 °F - 64.4 °F 94% 29.81 in 2.5 mi ESE 5.8 mph - 0.16 in Rain Heavy Rain
7:44 AM 66.2 °F - 64.4 °F 94% 29.81 in 3.0 mi ESE 4.6 mph - 0.19 in Rain Light Rain
7:56 AM 66.9 °F - 66.0 °F 97% 29.81 in 5.0 mi ESE 6.9 mph - 0.20 in Rain Light Rain
8:21 AM 68.0 °F - 66.2 °F 94% 29.81 in 5.0 mi East 3.5 mph - 0.03 in Rain Rain
8:56 AM 68.0 °F - 64.9 °F 90% 29.81 in 10.0 mi Calm Calm - 0.05 in   Mostly Cloudy
9:56 AM 69.1 °F - 66.0 °F 90% 29.79 in 10.0 mi Calm Calm - N/A   Overcast
10:56 AM 72.0 °F - 66.9 °F 84% 29.80 in 10.0 mi Calm Calm - N/A   Overcast
11:23 AM 71.6 °F - 66.2 °F 83% 29.80 in 10.0 mi Calm Calm - N/A   Overcast
11:51 AM 73.4 °F - 66.2 °F 78% 29.79 in 10.0 mi Calm Calm - N/A   Scattered Clouds
11:56 AM 73.0 °F - 66.9 °F 81% 29.79 in 10.0 mi Calm Calm - N/A   Mostly Cloudy
12:56 PM 77.0 °F - 68.0 °F 74% 29.78 in 10.0 mi Calm Calm - N/A   Scattered Clouds
1:56 PM 78.1 °F - 66.9 °F 68% 29.76 in 10.0 mi West 8.1 mph - N/A   Mostly Cloudy
2:56 PM 81.0 °F 82.7 °F 64.9 °F 58% 29.74 in 10.0 mi NW 10.4 mph - N/A   Scattered Clouds
3:56 PM 80.1 °F 82.1 °F 66.0 °F 62% 29.72 in 10.0 mi WNW 4.6 mph - N/A   Mostly Cloudy
4:56 PM 79.0 °F - 69.1 °F 72% 29.73 in 9.0 mi SW 6.9 mph - 0.00 in   Mostly Cloudy
5:56 PM 78.1 °F - 70.0 °F 76% 29.73 in 8.0 mi SSW 6.9 mph - N/A   Mostly Cloudy
6:56 PM 75.9 °F - 70.0 °F 82% 29.74 in 8.0 mi Variable 5.8 mph - N/A   Overcast
7:56 PM 77.0 °F - 64.0 °F 64% 29.76 in 10.0 mi NW 8.1 mph - N/A   Overcast
8:56 PM 75.0 °F - 60.1 °F 60% 29.77 in 10.0 mi NW 9.2 mph - N/A   Mostly Cloudy
9:56 PM 73.9 °F - 57.0 °F 55% 29.80 in 10.0 mi NW 10.4 mph - N/A   Overcast
10:56 PM 72.0 °F - 54.0 °F 53% 29.82 in 10.0 mi NNW 13.8 mph - N/A   Mostly Cloudy
11:56 PM 69.1 °F - 51.1 °F 53% 29.83 in 10.0 mi NW 17.3 mph 23.0 mph N/A   Mostly Cloudy